Location: Unspecified
(29.9680°N, 0.0000°E)
Time: 05:04:44
(UTC+00:00)

A-11 Canister half - Pass Details

Date: 20 June 2019
Orbit: 1526 x 1683 km, 47.3° (Epoch: 21 August)

Event Time Altitude Azimuth Distance (km) Brightness Sun altitude
Rises 05:28:00 0° 255° (WSW) 4,749 10.9 4.8°
Reaches altitude 10° 05:31:19 10° 261° (W) 3,746 10.5 5.4°
Maximum altitude 05:40:14 45° 332° (NNW) 1,998 9.7 7.2°
Drops below altitude 10° 05:49:02 10° 43° (NE) 3,694 12.4 8.9°
Sets 05:52:18 0° 50° (NE) 4,678 13.1 9.6°
